Weather reports worldwide

Advertisment
St. James's Park, United Kingdom (3770): temperature & dewpoint: 23.04.2017 06:00:00 - 29.04.2017 06:00:00 (BST)St. James's Park, United Kingdom (3770): temperature -20cm & temperature -100cm: 23.04.2017 06:00:00 - 29.04.2017 06:00:00 (BST)St. James's Park, United Kingdom (3770): precipitation: 23.04.2017 06:00:00 - 29.04.2017 06:00:00 (BST)
Date & Time tt [°C] td [°C] tt -20cm [°C] tt -100cm [°C] rr [mm]
29.04.2017 06:00:00 5,1 4,2 - - 0,0
29.04.2017 05:00:00 5,5 4,4 - - 0,0
29.04.2017 04:00:00 6,8 4,3 - - 0,0
29.04.2017 03:00:00 8,2 4,8 - - 0,0
29.04.2017 02:00:00 9,2 5,2 - - 0,0
29.04.2017 01:00:00 10,8 6,3 - - 0,0
29.04.2017 00:00:00 11,0 4,1 - - 0,0
28.04.2017 23:00:00 11,6 3,4 - - 0,0
28.04.2017 22:00:00 11,9 3,1 - - 0,0
28.04.2017 21:00:00 12,4 3,6 - - 0,0
28.04.2017 20:00:00 12,7 3,5 - - 0,0
28.04.2017 19:00:00 13,2 3,1 - - 0,0
28.04.2017 18:00:00 13,1 3,3 - - 0,0
28.04.2017 17:00:00 13,9 2,9 - - 0,0
28.04.2017 16:00:00 13,1 2,9 - - 0,0
28.04.2017 15:00:00 13,1 3,3 - - 0,0
28.04.2017 14:00:00 11,6 2,9 - - 0,0
28.04.2017 13:00:00 11,0 3,0 - - 0,0
28.04.2017 12:00:00 10,7 3,6 - - 0,0
28.04.2017 11:00:00 10,4 3,3 - - 0,0
28.04.2017 10:00:00 10,0 4,4 11,4 11,7 0,0
28.04.2017 09:00:00 9,2 4,6 - - 0,0
28.04.2017 08:00:00 8,8 5,8 - - 0,0
28.04.2017 07:00:00 8,3 5,2 - - 0,0
28.04.2017 06:00:00 8,2 5,6 - - 0,0
28.04.2017 05:00:00 8,2 5,8 - - 0,0
28.04.2017 04:00:00 8,4 5,5 - - 0,0
28.04.2017 03:00:00 8,4 5,5 - - 0,0
28.04.2017 02:00:00 8,5 5,2 - - 0,0
28.04.2017 01:00:00 8,3 5,5 - - 0,0
28.04.2017 00:00:00 8,6 6,0 - - 0,0
27.04.2017 23:00:00 8,8 6,0 - - 0,0
27.04.2017 22:00:00 8,7 5,9 - - 0,0
27.04.2017 21:00:00 8,9 5,6 - - 0,0
27.04.2017 20:00:00 8,8 5,7 - - 0,0
27.04.2017 19:00:00 8,4 6,0 - - 0,6
27.04.2017 18:00:00 9,4 4,5 - - 0,2
27.04.2017 17:00:00 9,6 3,5 - - 0,0
27.04.2017 16:00:00 9,9 3,1 - - 0,0
27.04.2017 15:00:00 10,4 1,1 - - 0,0
27.04.2017 14:00:00 10,2 0,5 - - 0,0
27.04.2017 13:00:00 11,4 -0,2 - - 0,0
27.04.2017 12:00:00 10,9 -0,9 - - 0,0
27.04.2017 11:00:00 10,0 -1,8 - - 0,0
27.04.2017 10:00:00 8,6 0,5 11,4 11,7 0,0
27.04.2017 09:00:00 6,0 0,2 - - 0,0
27.04.2017 08:00:00 4,0 1,2 - - 0,0
27.04.2017 07:00:00 1,8 0,8 - - 0,0
27.04.2017 06:00:00 1,3 0,3 - - 0,0
27.04.2017 05:00:00 1,5 0,2 - - 0,0
27.04.2017 04:00:00 2,3 0,3 - - 0,0
27.04.2017 03:00:00 3,2 0,1 - - 0,0
27.04.2017 02:00:00 3,8 0,8 - - 0,0
27.04.2017 01:00:00 4,2 0,8 - - 0,0
27.04.2017 00:00:00 5,3 0,5 - - 0,0
26.04.2017 23:00:00 6,1 0,8 - - 0,0
26.04.2017 22:00:00 6,0 1,3 - - 0,0
26.04.2017 21:00:00 6,5 0,6 - - 0,0
26.04.2017 20:00:00 7,0 1,4 - - 0,0
26.04.2017 19:00:00 7,3 1,2 - - 0,0
26.04.2017 18:00:00 8,9 2,0 - - 0,0
26.04.2017 17:00:00 8,2 0,8 - - 0,0
26.04.2017 16:00:00 9,2 3,1 - - 0,0
26.04.2017 15:00:00 7,0 2,4 - - 1,0
26.04.2017 14:00:00 8,8 2,0 - - 0,0
26.04.2017 13:00:00 9,9 -0,1 - - 0,0
26.04.2017 12:00:00 9,5 1,0 - - 0,0
26.04.2017 11:00:00 8,0 0,7 - - 0,0
26.04.2017 10:00:00 7,5 1,4 11,7 11,9 0,0
26.04.2017 09:00:00 5,6 1,4 - - 0,0
26.04.2017 08:00:00 4,8 1,0 - - 0,0
26.04.2017 07:00:00 4,2 0,9 - - 0,0
26.04.2017 06:00:00 3,9 0,8 - - 0,0
26.04.2017 05:00:00 3,9 0,8 - - 0,0
26.04.2017 04:00:00 3,2 0,5 - - 0,0
26.04.2017 03:00:00 3,4 0,5 - - 0,0
26.04.2017 02:00:00 3,8 0,7 - - 0,0
26.04.2017 01:00:00 4,0 0,5 - - 0,0
26.04.2017 00:00:00 4,4 0,5 - - 0,0
25.04.2017 23:00:00 4,9 0,4 - - 0,0
25.04.2017 22:00:00 5,2 0,2 - - 0,0
25.04.2017 21:00:00 6,0 0,1 - - 0,0
25.04.2017 20:00:00 6,4 -0,1 - - 0,0
25.04.2017 19:00:00 7,7 0,3 - - 0,0
25.04.2017 18:00:00 8,8 -2,8 - - 0,0
25.04.2017 17:00:00 10,0 -5,1 - - 0,0
25.04.2017 16:00:00 10,4 -5,9 - - 0,0
25.04.2017 15:00:00 10,7 -6,4 - - 0,0
25.04.2017 14:00:00 10,0 -6,4 - - 0,0
25.04.2017 13:00:00 8,8 -5,8 - - 0,0
25.04.2017 12:00:00 8,4 -4,3 - - 0,0
25.04.2017 11:00:00 8,6 -5,0 - - 0,0
25.04.2017 10:00:00 7,3 -3,3 11,9 11,9 0,0
25.04.2017 09:00:00 5,9 -2,8 - - 0,0
25.04.2017 08:00:00 4,2 -2,2 - - 0,0
25.04.2017 07:00:00 2,9 -3,1 - - 0,0
25.04.2017 06:00:00 1,9 -3,3 - - 0,0
25.04.2017 05:00:00 2,4 -3,2 - - 0,0
25.04.2017 04:00:00 3,4 -3,1 - - 0,0
25.04.2017 03:00:00 3,9 -3,3 - - 0,0
25.04.2017 02:00:00 4,5 -3,5 - - 0,0
25.04.2017 01:00:00 5,3 -4,2 - - 0,0
25.04.2017 00:00:00 6,5 -4,9 - - 0,0
24.04.2017 23:00:00 7,9 -4,1 - - 0,0
24.04.2017 22:00:00 9,6 -1,8 - - 0,0
24.04.2017 21:00:00 10,3 1,5 - - 0,0
24.04.2017 20:00:00 10,5 5,0 - - 0,0
24.04.2017 19:00:00 10,4 5,1 - - 0,0
24.04.2017 18:00:00 12,6 6,0 - - 0,0
24.04.2017 17:00:00 13,3 6,5 - - 0,0
24.04.2017 16:00:00 11,6 8,8 - - 0,4
24.04.2017 15:00:00 13,1 7,1 - - 0,0
24.04.2017 14:00:00 12,6 8,2 - - 0,0
24.04.2017 13:00:00 13,1 6,6 - - 0,0
24.04.2017 12:00:00 12,7 6,4 - - 0,0
24.04.2017 11:00:00 12,5 6,1 - - 0,0
24.04.2017 10:00:00 13,0 5,8 12,4 11,9 0,0
24.04.2017 09:00:00 11,7 6,1 - - 0,0
24.04.2017 08:00:00 8,8 5,8 - - 0,0
24.04.2017 07:00:00 6,5 5,6 - - 0,0
24.04.2017 06:00:00 6,8 5,5 - - 0,0
24.04.2017 05:00:00 7,5 5,3 - - 0,0
24.04.2017 04:00:00 8,1 5,7 - - 0,0
24.04.2017 03:00:00 8,3 6,2 - - 0,0
24.04.2017 02:00:00 8,3 6,6 - - 0,0
24.04.2017 01:00:00 8,9 6,5 - - 0,0
24.04.2017 00:00:00 8,6 6,1 - - 0,0
23.04.2017 23:00:00 9,8 6,4 - - 0,0
23.04.2017 22:00:00 10,5 6,6 - - 0,0
23.04.2017 21:00:00 11,6 6,7 - - 0,0
23.04.2017 20:00:00 13,0 2,8 - - 0,0
23.04.2017 19:00:00 14,3 2,0 - - 0,0
23.04.2017 18:00:00 16,0 2,5 - - 0,0
23.04.2017 17:00:00 16,6 2,8 - - 0,0
23.04.2017 16:00:00 15,5 2,4 - - 0,0
23.04.2017 15:00:00 15,2 2,7 - - 0,0
23.04.2017 14:00:00 15,1 4,3 - - 0,0
23.04.2017 13:00:00 13,9 3,1 - - 0,0
23.04.2017 12:00:00 13,6 5,2 - - 0,0
23.04.2017 11:00:00 12,6 5,3 - - 0,0
23.04.2017 10:00:00 11,7 4,2 12,4 11,7 0,0
23.04.2017 09:00:00 9,7 1,9 - - 0,0
23.04.2017 08:00:00 8,9 1,6 - - 0,0
23.04.2017 07:00:00 8,7 1,9 - - 0,0
23.04.2017 06:00:00 8,6 2,0 - - 0,0

tt = temperature
td = dewpoint
tt -20cm = temperature -20cm
tt -100cm = temperature -100cm
rr = precipitation

Next stations